M0ZPG Weather Reports


Display with metric or nautical units.
time (UTC)temp
F
wind
direction
speed
MPH
gust
MPH
rain 1hr
in
rain 24hr
in
rain mn
in
humidity
%
barometer
mb
20260506083603 53 339 3.0 12.0 0.00 0.00 0.00 64 1011.8
20260506082705 54 349 2.0 10.0 0.00 0.00 0.00 65 1011.6
20260506081805 54 330 2.0 12.0 0.00 0.00 0.00 66 1011.6
20260506080905 53 343 3.0 8.0 0.00 0.00 0.00 68 1011.7
20260506080219 53 339 3.0 8.0 0.00 0.00 0.00 69 1011.6
20260506072704 50 338 2.0 6.0 0.00 0.00 0.00 76 1011.9
20260506071805 49 2 1.0 5.0 0.00 0.00 0.00 76 1011.9
20260506070903 49 9 1.0 10.0 0.00 0.00 0.00 77 1011.9
20260506061803 50 322 2.0 9.0 0.00 0.00 0.00 74 1011.7
20260506060903 49 329 1.0 8.0 0.00 0.00 0.00 76 1011.6
20260506050905 47 3 1.0 5.0 0.00 0.00 0.00 80 1011.4
20260506044503 48 1 1.0 8.0 0.00 0.00 0.00 79 1011.2
20260506043606 48 358 1.0 8.0 0.00 0.00 0.00 79 1011.3
20260506042914 48 358 1.0 8.0 0.00 0.00 0.00 79 1011.3
20260506041805 48 10 1.0 6.0 0.00 0.00 0.00 79 1011.2
20260506040903 48 17 1.0 3.0 0.00 0.00 0.00 79 1011.0
20260506040003 48 23 2.0 6.0 0.00 0.00 0.00 78 1011.0
20260506035403 48 1 1.0 4.0 0.00 0.00 0.00 77 1011.0
20260506034505 49 356 1.0 5.0 0.00 0.00 0.00 76 1011.0
20260506033603 49 29 1.0 6.0 0.00 0.00 0.00 75 1011.0
20260506032915 49 41 1.0 6.0 0.00 0.00 0.00 75 1011.1
20260506032017 49 6 2.0 8.0 0.00 0.00 0.00 75 1011.0
20260506030908 49 4 2.0 8.0 0.00 0.00 0.00 77 1011.0
20260506030005 50 13 2.0 8.0 0.00 0.00 0.00 78 1011.0
20260506025403 50 18 1.0 6.0 0.00 0.00 0.00 78 1011.0
20260506024504 50 60 1.0 4.0 0.00 0.00 0.00 78 1011.1
20260506023605 50 22 2.0 7.0 0.00 0.00 0.00 78 1011.2
20260506022705 50 358 2.0 7.0 0.00 0.00 0.00 79 1011.3
20260506021804 50 7 2.0 8.0 0.00 0.00 0.00 79 1011.3
20260506020905 50 29 2.0 8.0 0.00 0.00 0.00 78 1011.3
20260506020006 50 8 1.0 3.0 0.00 0.00 0.00 78 1011.4
20260506015403 50 30 1.0 4.0 0.00 0.00 0.00 78 1011.4
20260506014505 51 19 1.0 5.0 0.00 0.00 0.00 78 1011.4
20260506013603 51 2 1.0 6.0 0.00 0.00 0.00 78 1011.4
20260506012705 51 17 1.0 4.0 0.00 0.00 0.00 77 1011.5
20260506011805 51 9 1.0 9.0 0.00 0.00 0.00 76 1011.6
20260506011116 51 14 1.0 5.0 0.00 0.00 0.00 76 1011.6
20260506010005 51 52 1.0 7.0 0.00 0.00 0.00 77 1011.6
20260506005403 51 78 1.0 7.0 0.00 0.00 0.00 76 1011.5
20260506004505 51 97 1.0 4.0 0.00 0.00 0.00 76 1011.6
20260506003604 51 36 1.0 4.0 0.00 0.00 0.00 76 1011.7
20260506002705 51 40 1.0 6.0 0.00 0.00 0.00 75 1011.7
20260506001806 51 48 2.0 8.0 0.00 0.00 0.00 75 1011.8
20260506000904 51 50 1.0 7.0 0.00 0.00 0.00 75 1011.8
20260506000005 51 58 2.0 8.0 0.00 0.00 0.00 75 1011.9
20260505235615 52 60 2.0 8.0 0.00 0.00 0.00 75 1011.8
20260505234505 52 50 2.0 8.0 0.00 0.00 0.00 74 1011.8
20260505233604 52 31 3.0 13.0 0.00 0.00 0.00 73 1011.9
20260505232917 52 40 2.0 8.0 0.00 0.00 0.00 74 1011.8
20260505231805 52 45 2.0 7.0 0.00 0.00 0.00 77 1011.7
20260505230903 52 21 2.0 11.0 0.00 0.00 0.00 78 1011.7
20260505230003 52 54 1.0 8.0 0.00 0.00 0.00 80 1011.8
20260505225405 52 80 1.0 4.0 0.00 0.00 0.00 81 1011.7
20260505224505 52 83 1.0 6.0 0.00 0.00 0.00 80 1011.8
20260505223816 52 88 2.0 7.0 0.00 0.00 0.00 80 1011.7
20260505222706 53 58 1.0 5.0 0.00 0.00 0.00 79 1011.7
20260505221806 53 35 1.0 5.0 0.00 0.00 0.00 79 1011.8
20260505220908 53 52 2.0 8.0 0.00 0.00 0.00 79 1011.8
20260505220007 54 20 2.0 12.0 0.00 0.00 0.00 79 1011.9
20260505215403 54 5 3.0 12.0 0.00 0.00 0.00 77 1011.8
20260505214503 54 41 2.0 9.0 0.00 0.00 0.00 73 1011.7
20260505213604 54 69 2.0 5.0 0.00 0.00 0.00 72 1011.6
20260505212703 54 78 1.0 6.0 0.00 0.00 0.00 73 1011.6
20260505211805 54 90 1.0 4.0 0.00 0.00 0.00 73 1011.6
20260505211118 54 90 1.0 4.0 0.00 0.00 0.00 73 1011.5
20260505210003 54 90 1.0 6.0 0.00 0.00 0.00 74 1011.6
20260505205406 54 89 1.0 5.0 0.00 0.00 0.00 74 1011.5
20260505204505 55 83 3.0 10.0 0.00 0.00 0.00 73 1011.5
20260505203604 55 89 2.0 10.0 0.00 0.00 0.00 70 1011.5
20260505202703 56 85 1.0 4.0 0.00 0.00 0.00 69 1011.4
20260505201805 56 85 2.0 6.0 0.00 0.00 0.00 68 1011.2
20260505200903 56 81 2.0 4.0 0.00 0.00 0.00 68 1011.1
20260505200005 57 82 3.0 7.0 0.00 0.00 0.00 66 1011.0
20260505195403 57 88 2.0 6.0 0.00 0.00 0.00 65 1010.9
20260505194503 57 76 2.0 5.0 0.00 0.00 0.00 63 1010.8
20260505193605 57 78 1.0 5.0 0.00 0.00 0.00 62 1010.6
20260505192915 57 82 0.0 4.0 0.00 0.00 0.00 62 1010.5
20260505192017 58 82 0.0 2.0 0.00 0.00 0.00 62 1010.3
20260505190905 58 82 1.0 3.0 0.00 0.00 0.00 61 1010.1
20260505190003 58 82 1.0 3.0 0.00 0.00 0.00 61 1010.0
20260505185403 58 82 0.0 2.0 0.00 0.00 0.00 61 1010.0
20260505184716 58 82 1.0 3.0 0.00 0.00 0.00 61 1010.0
20260505183604 58 82 1.0 3.0 0.00 0.00 0.00 60 1010.0
20260505182705 58 82 1.0 3.0 0.00 0.00 0.00 60 1009.9
20260505181805 58 82 2.0 4.0 0.00 0.00 0.00 60 1009.9
20260505180903 58 85 2.0 7.0 0.00 0.00 0.00 60 1010.1
20260505180003 59 94 2.0 6.0 0.00 0.00 0.00 59 1010.1
20260505175403 59 97 2.0 6.0 0.00 0.00 0.00 60 1010.1
20260505174503 59 94 2.0 7.0 0.00 0.00 0.00 59 1010.1
20260505173603 59 93 2.0 8.0 0.00 0.00 0.00 58 1010.2
20260505172703 60 90 1.0 4.0 0.00 0.00 0.00 58 1010.2
20260505171805 60 75 2.0 5.0 0.00 0.00 0.00 57 1010.2
20260505170903 60 78 2.0 5.0 0.00 0.00 0.00 57 1010.2
20260505170004 60 70 1.0 5.0 0.00 0.00 0.00 57 1010.2
20260505165403 60 73 1.0 3.0 0.00 0.00 0.00 57 1010.2
20260505164717 60 77 1.0 3.0 0.00 0.00 0.00 57 1010.3
20260505163814 61 76 2.0 5.0 0.00 0.00 0.00 56 1010.2
20260505162705 61 75 1.0 4.0 0.00 0.00 0.00 56 1010.2
20260505161805 61 77 1.0 4.0 0.00 0.00 0.00 56 1010.2
20260505160903 61 77 1.0 4.0 0.00 0.00 0.00 56 1010.2
20260505160219 61 74 2.0 6.0 0.00 0.00 0.00 55 1010.2
20260505152704 61 60 1.0 3.0 0.00 0.00 0.00 55 1010.4
20260505151803 61 26 1.0 4.0 0.00 0.00 0.00 56 1010.4
20260505151117 61 20 1.0 5.0 0.00 0.00 0.00 56 1010.5
20260505150214 61 69 1.0 6.0 0.00 0.00 0.00 56 1010.4
20260505124506 62 65 2.0 7.0 0.00 0.00 0.00 57 1011.1
20260505123604 62 42 2.0 9.0 0.00 0.00 0.00 58 1011.0
20260505122703 62 77 3.0 8.0 0.00 0.00 0.00 57 1011.0
20260505121806 62 51 2.0 9.0 0.00 0.00 0.00 57 1010.9
20260505120903 62 2 2.0 9.0 0.00 0.00 0.00 57 1010.9
20260505120216 62 33 2.0 8.0 0.00 0.00 0.00 57 1011.0
20260505115405 62 37 2.0 7.0 0.00 0.00 0.00 58 1011.0
20260505114503 62 26 2.0 8.0 0.00 0.00 0.00 59 1010.9
20260505113606 62 58 2.0 8.0 0.00 0.00 0.00 59 1011.0
20260505112705 62 49 3.0 8.0 0.00 0.00 0.00 59 1011.0
20260505111803 61 32 3.0 10.0 0.00 0.00 0.00 60 1011.0
20260505110903 61 26 2.0 9.0 0.00 0.00 0.00 60 1011.1
20260505101805 61 349 2.0 5.0 0.00 0.00 0.00 67 1011.6
20260505100905 60 81 2.0 8.0 0.00 0.00 0.00 66 1011.8
20260505100003 60 31 2.0 6.0 0.00 0.00 0.00 66 1011.8
20260505095403 60 27 2.0 6.0 0.00 0.00 0.00 66 1011.8
20260505094717 59 66 2.0 7.0 0.00 0.00 0.00 67 1012.0
20260505093603 59 2 1.0 8.0 0.00 0.00 0.00 69 1011.8
20260505092705 58 22 2.0 10.0 0.00 0.00 0.00 71 1011.9
20260505091803 58 30 2.0 7.0 0.00 0.00 0.00 72 1011.9
20260505091116 57 13 2.0 8.0 0.00 0.00 0.00 73 1011.9
20260505090003 57 4 2.0 8.0 0.00 0.00 0.00 73 1012.0
20260505085404 57 1 2.0 7.0 0.00 0.00 0.00 75 1012.0
20260505084717 56 11 2.0 7.0 0.00 0.00 0.00 76 1012.0